This demonstration page uses our WeatherBlox Daily Observations layout. Learn more.

Left ArrowRight Arrow

34.16533, -84.80231

Hourly Observations for July 14, 2017

Temp ( °F °C ) Dew Point ( °F °C ) Humidity (%) Winds ( mph kmh ) Pressure ( in mb ) Visibility ( mi km ) Precip ( " mm )
12:53 am 00:53 Clear 74 23.3 74 23.3 100 100 Calm 30.12 1020 10 16 0.00 0.00
1:53 am 01:53 Clear 74 23.3 74 23.3 100 100 Calm 30.12 1020 10 16 0.00 0.00
2:53 am 02:53 Mostly Cloudy 72 22.2 72 22.2 100 100 Calm 30.12 1020 10 16 0.00 0.00
3:53 am 03:53 Mostly Clear 72 22.2 72 22.2 100 100 Calm 30.11 1020 10 16 0.00 0.00
4:53 am 04:53 Clear 73 22.8 73 22.8 100 100 Calm 30.12 1020 10 16 0.00 0.00
5:53 am 05:53 Clear 72 22.2 72 22.2 100 100 Calm 30.13 1020 10 16 0.00 0.00
6:53 am 06:53 Mostly Cloudy 71 21.7 71 21.7 100 100 Calm 30.15 1021 9 14 0.00 0.00
7:53 am 07:53 Sunny 75 23.9 74 23.3 96 96 Calm 30.16 1021 10 16 0.00 0.00
8:53 am 08:53 Sunny 79 26.1 75 23.9 88 88 Calm 30.16 1021 10 16 0.00 0.00
9:53 am 09:53 Sunny 83 28.3 76 24.4 79 79 Calm 30.16 1021 10 16 0.00 0.00
10:53 am 10:53 Sunny 86 30 75 23.9 70 70 VRB 3 6 30.14 1021 10 16 0.00 0.00
11:53 am 11:53 Mostly Sunny 88 31.1 74 23.3 63 63 Calm 30.14 1021 10 16 0.00 0.00
12:53 pm 12:53 Mostly Sunny 89 31.7 75 23.9 63 63 VRB 5 7 30.12 1020 10 16 0.00 0.00
1:53 pm 13:53 Sunny 91 32.8 75 23.9 59 59 SSW 7 11 30.10 1019 10 16 0.00 0.00
2:53 pm 14:53 Mostly Sunny 91 32.8 73 22.8 56 56 Calm 30.07 1018 10 16 0.00 0.00
3:53 pm 15:53 Mostly Sunny 92 33.3 75 23.9 58 58 SSE 8 13 30.06 1018 10 16 0.00 0.00
4:45 pm 16:45 Partly Cloudy with Nearby Thunderstorms 92 33.3 73 22.8 54 54 VRB 6 9 30.03 1017 5 8 0.00 0.00
4:53 pm 16:53 Mostly Cloudy with Nearby Thunderstorms 89 31.7 75 23.9 63 63 VRB 5 7 30.05 1018 9 14 0.00 0.00
5:01 pm 17:01 Mostly Cloudy with Thunderstorms 86 30 75 23.9 70 70 VRB 6 9 30.03 1017 10 16 0.00 0.00
5:25 pm 17:25 Mostly Cloudy with Thunderstorms 76 24.4 72 22.2 88 88 N 13 20 30.06 1018 7 11 0.00 0.03
5:53 pm 17:53 Mostly Cloudy 77 25 72 22.2 85 85 Calm 30.06 1018 10 16 0.00 0.03
6:18 pm 18:18 Partly Cloudy with Nearby Thunderstorms 79 26.1 73 22.8 82 82 Calm 30.03 1017 10 16 0.00 0.00
6:53 pm 18:53 Partly Cloudy with Nearby Thunderstorms 78 25.6 72 22.2 82 82 N 3 6 30.08 1019 10 16 0.00 0.00
7:02 pm 19:02 Partly Cloudy with Thunderstorms 78 25.6 73 22.8 85 85 Calm 30.06 1018 10 16 0.00 0.00
7:17 pm 19:17 Mostly Cloudy with Nearby Thunderstorms 78 25.6 73 22.8 85 85 SSW 3 6 30.12 1020 10 16 0.00 0.00
7:39 pm 19:39 Cloudy with Thunderstorms 76 24.4 74 23.3 94 94 ESE 3 6 30.12 1020 7 11 0.01 0.25
7:53 pm 19:53 Cloudy with Thunderstorms 75 23.9 75 23.9 100 100 E 3 6 30.10 1019 7 11 0.03 0.76
8:11 pm 20:11 Partly Cloudy with Nearby Thunderstorms 75 23.9 75 23.9 100 100 E 3 6 30.12 1020 10 16 0.00 0.03
8:49 pm 20:49 Mostly Cloudy with Light Rain 73 23 73 23 100 100 Calm 30.09 1019 9 14 0.01 0.25
8:53 pm 20:53 Mostly Cloudy with Light Rain 74 23.3 74 23.3 100 100 Calm 30.09 1019 10 16 0.01 0.25
9:53 pm 21:53 Partly Cloudy with Light Rain 74 23.3 74 23.3 100 100 E 3 6 30.10 1019 10 16 0.02 0.51
10:53 pm 22:53 Clear 73 22.8 73 22.8 100 100 Calm 30.10 1019 10 16 0.00 0.03
11:53 pm 23:53 Clear 73 22.8 73 22.8 100 100 Calm 30.11 1020 10 16 0.00 0.00

Powered by AerisWeather